When you browse on this site, cookies collect data to enhance your experience and personalize the content and advertising you see.
Visit our Privacy Policy to learn more. By continuing to use the site, you agree to this use of cookies and data.
  • In Czech Republic
  • List of Countries
  • For 7 days
  • Water Temperature
  • Weather Map
  • Weather Widgets
  • user-avatar
    Login

    Hourly Weather Jutiapa

    Today, 20 September, Friday

    Time Temperature Precipitation Wind Pressure Humidity
    00:00 +20°C° 0.1 mm 1 mps 671 mmHg 92%
    01:00 +20°C° 0 mm 1 mps 670 mmHg 93%
    02:00 +20°C° 0 mm 1 mps 670 mmHg 93%
    03:00 +19°C° 0 mm 1 mps 670 mmHg 93%
    04:00 +19°C° 0 mm 1 mps 670 mmHg 93%
    05:00 +19°C° 0 mm 1 mps 670 mmHg 94%
    06:00 +19°C° 0 mm 1 mps 671 mmHg 94%
    07:00 +21°C° 0.1 mm 1 mps 671 mmHg 89%
    08:00 +23°C° 0.1 mm 2 mps 672 mmHg 84%
    09:00 +25°C° 0.1 mm 2 mps 673 mmHg 79%
    10:00 +26°C° 0.6 mm 1 mps 673 mmHg 77%
    11:00 +27°C° 0.6 mm 1 mps 673 mmHg 75%
    12:00 +28°C° 0.6 mm 1 mps 673 mmHg 73%
    13:00 +27°C° 0.9 mm 1 mps 672 mmHg 74%
    14:00 +27°C° 0.9 mm 1 mps 671 mmHg 76%
    15:00 +27°C° 0.9 mm 1 mps 671 mmHg 77%
    16:00 +25°C° 0.6 mm 1 mps 671 mmHg 83%
    17:00 +24°C° 0.6 mm 1 mps 671 mmHg 88%
    18:00 +22°C° 0.6 mm 1 mps 671 mmHg 94%
    19:00 +22°C° 0.3 mm 1 mps 671 mmHg 95%
    20:00 +21°C° 0.3 mm 1 mps 671 mmHg 96%
    21:00 +21°C° 0.3 mm 1 mps 672 mmHg 96%
    22:00 +20°C° 0.1 mm 1 mps 672 mmHg 96%
    23:00 +20°C° 0.1 mm 1 mps 672 mmHg 96%

    Tomorrow, 21 September, Saturday

    Time Temperature Precipitation Wind Pressure Humidity
    00:00 +20°C° 0.1 mm 1 mps 672 mmHg 96%
    01:00 +20°C° 0.1 mm 1 mps 672 mmHg 96%
    02:00 +19°C° 0.1 mm 1 mps 671 mmHg 95%
    03:00 +19°C° 0.1 mm 1 mps 671 mmHg 95%
    04:00 +19°C° 0 mm 1 mps 671 mmHg 95%
    05:00 +19°C° 0 mm 1 mps 671 mmHg 95%
    06:00 +19°C° 0 mm 1 mps 671 mmHg 95%
    07:00 +21°C° 0 mm 1 mps 672 mmHg 89%
    08:00 +23°C° 0 mm 1 mps 673 mmHg 83%
    09:00 +25°C° 0 mm 1 mps 674 mmHg 78%
    10:00 +26°C° 0 mm 1 mps 674 mmHg 73%
    11:00 +27°C° 0 mm 1 mps 673 mmHg 69%
    12:00 +28°C° 0 mm 2 mps 673 mmHg 64%
    13:00 +28°C° 0.6 mm 1 mps 672 mmHg 67%
    14:00 +27°C° 0.6 mm 1 mps 672 mmHg 70%
    15:00 +27°C° 0.6 mm 1 mps 671 mmHg 73%
    16:00 +25°C° 0.6 mm 1 mps 671 mmHg 80%
    17:00 +24°C° 0.6 mm 1 mps 671 mmHg 86%
    18:00 +22°C° 0.6 mm 1 mps 671 mmHg 93%
    19:00 +22°C° 0.7 mm 1 mps 671 mmHg 94%
    20:00 +19°C° 0.7 mm 0 mps 672 mmHg 95%
    21:00 +19°C° 0.7 mm 0 mps 673 mmHg 96%
    22:00 +19°C° 0.6 mm 0 mps 673 mmHg 96%
    23:00 +19°C° 0.6 mm 0 mps 672 mmHg 96%

    Day after tomorrow, 22 September, Sunday

    Time Temperature Precipitation Wind Pressure Humidity
    00:00 +18°C° 0.6 mm 0 mps 672 mmHg 97%
    01:00 +20°C° 0.1 mm 1 mps 672 mmHg 97%
    02:00 +20°C° 0.1 mm 1 mps 672 mmHg 97%
    03:00 +20°C° 0.1 mm 1 mps 671 mmHg 97%
    04:00 +20°C° 0 mm 1 mps 671 mmHg 97%
    05:00 +19°C° 0 mm 1 mps 671 mmHg 97%
    06:00 +19°C° 0 mm 1 mps 671 mmHg 96%
    07:00 +21°C° 0 mm 1 mps 672 mmHg 91%
    08:00 +23°C° 0 mm 1 mps 673 mmHg 85%
    09:00 +25°C° 0 mm 1 mps 674 mmHg 79%
    10:00 +26°C° 0.5 mm 1 mps 674 mmHg 78%
    11:00 +26°C° 0.5 mm 1 mps 673 mmHg 76%
    12:00 +27°C° 0.5 mm 1 mps 673 mmHg 75%
    13:00 +26°C° 1.1 mm 1 mps 673 mmHg 78%
    14:00 +26°C° 1.1 mm 1 mps 672 mmHg 81%
    15:00 +26°C° 1.1 mm 1 mps 671 mmHg 84%
    16:00 +24°C° 1.1 mm 1 mps 671 mmHg 88%
    17:00 +23°C° 1.1 mm 1 mps 671 mmHg 92%
    18:00 +22°C° 1.1 mm 1 mps 671 mmHg 96%
    19:00 +21°C° 0.9 mm 1 mps 672 mmHg 96%
    20:00 +19°C° 0.9 mm 0 mps 672 mmHg 96%
    21:00 +19°C° 0.9 mm 0 mps 672 mmHg 96%
    22:00 +18°C° 0.5 mm 0 mps 672 mmHg 96%
    23:00 +18°C° 0.5 mm 0 mps 672 mmHg 96%

    23 September, Monday

    Time Temperature Precipitation Wind Pressure Humidity
    00:00 +18°C° 0.5 mm 0 mps 672 mmHg 95%
    01:00 +20°C° 0.3 mm 1 mps 672 mmHg 95%
    02:00 +20°C° 0.3 mm 1 mps 672 mmHg 95%
    03:00 +20°C° 0.3 mm 1 mps 671 mmHg 95%
    04:00 +20°C° 0 mm 1 mps 671 mmHg 94%
    05:00 +20°C° 0 mm 1 mps 672 mmHg 94%
    06:00 +20°C° 0 mm 1 mps 672 mmHg 94%
    07:00 +21°C° 0.2 mm 1 mps 673 mmHg 91%
    08:00 +23°C° 0.2 mm 1 mps 673 mmHg 88%
    09:00 +25°C° 0.2 mm 1 mps 674 mmHg 85%
    10:00 +25°C° 1.9 mm 1 mps 674 mmHg 85%
    11:00 +25°C° 1.9 mm 1 mps 674 mmHg 86%
    12:00 +26°C° 1.9 mm 1 mps 673 mmHg 86%
    13:00 +25°C° 1.4 mm 1 mps 673 mmHg 88%
    14:00 +25°C° 1.4 mm 1 mps 672 mmHg 91%
    15:00 +24°C° 1.4 mm 1 mps 671 mmHg 93%
    16:00 +23°C° 0.8 mm 1 mps 671 mmHg 94%
    17:00 +22°C° 0.8 mm 1 mps 671 mmHg 96%
    18:00 +19°C° 0.8 mm 0 mps 671 mmHg 98%
    19:00 +19°C° 1 mm 0 mps 672 mmHg 97%
    20:00 +19°C° 1 mm 0 mps 672 mmHg 97%
    21:00 +21°C° 1 mm 1 mps 673 mmHg 96%
    22:00 +21°C° 0.7 mm 1 mps 673 mmHg 96%
    23:00 +21°C° 0.7 mm 1 mps 672 mmHg 95%

    24 September, Tuesday

    Time Temperature Precipitation Wind Pressure Humidity
    00:00 +21°C° 0.7 mm 1 mps 672 mmHg 95%
    01:00 +21°C° 0.4 mm 1 mps 672 mmHg 95%
    02:00 +20°C° 0.4 mm 1 mps 672 mmHg 95%
    03:00 +20°C° 0.4 mm 1 mps 672 mmHg 96%
    04:00 +20°C° 0.1 mm 1 mps 672 mmHg 96%
    05:00 +20°C° 0.1 mm 1 mps 672 mmHg 96%
    06:00 +20°C° 0.1 mm 1 mps 672 mmHg 96%
    07:00 +21°C° 0 mm 1 mps 673 mmHg 93%
    08:00 +22°C° 0 mm 1 mps 673 mmHg 91%
    09:00 +23°C° 0 mm 1 mps 674 mmHg 88%
    10:00 +25°C° 0.1 mm 1 mps 674 mmHg 81%
    11:00 +27°C° 0.1 mm 1 mps 674 mmHg 74%
    12:00 +28°C° 0.1 mm 1 mps 674 mmHg 67%
    13:00 +28°C° 0.5 mm 1 mps 673 mmHg 71%
    14:00 +27°C° 0.5 mm 1 mps 672 mmHg 75%
    15:00 +26°C° 0.5 mm 1 mps 671 mmHg 79%
    16:00 +25°C° 0.4 mm 1 mps 671 mmHg 85%
    17:00 +24°C° 0.4 mm 1 mps 671 mmHg 91%
    18:00 +22°C° 0.4 mm 1 mps 671 mmHg 98%
    19:00 +22°C° 0.8 mm 1 mps 671 mmHg 98%
    20:00 +22°C° 0.8 mm 1 mps 672 mmHg 98%
    21:00 +21°C° 0.8 mm 1 mps 672 mmHg 99%
    22:00 +21°C° 0.7 mm 1 mps 672 mmHg 98%
    23:00 +21°C° 0.7 mm 1 mps 672 mmHg 98%

    25 September, Wednesday

    Time Temperature Precipitation Wind Pressure Humidity
    00:00 +21°C° 0.7 mm 1 mps 672 mmHg 98%
    01:00 +19°C° 0.5 mm 0 mps 672 mmHg 98%
    02:00 +19°C° 0.5 mm 0 mps 672 mmHg 98%
    03:00 +19°C° 0.5 mm 0 mps 671 mmHg 97%
    04:00 +19°C° 0 mm 0 mps 671 mmHg 97%
    05:00 +18°C° 0 mm 0 mps 672 mmHg 97%
    06:00 +18°C° 0 mm 0 mps 672 mmHg 96%
    07:00 +20°C° 0.1 mm 0 mps 672 mmHg 92%
    08:00 +22°C° 0.1 mm 0 mps 673 mmHg 87%
    09:00 +24°C° 0.1 mm 0 mps 674 mmHg 83%
    10:00 +26°C° 0.4 mm 1 mps 673 mmHg 81%
    11:00 +27°C° 0.4 mm 1 mps 673 mmHg 79%
    12:00 +27°C° 0.4 mm 2 mps 672 mmHg 77%
    13:00 +26°C° 1.2 mm 2 mps 672 mmHg 81%
    14:00 +25°C° 1.2 mm 2 mps 671 mmHg 85%
    15:00 +25°C° 1.2 mm 2 mps 670 mmHg 90%
    16:00 +24°C° 0.7 mm 2 mps 670 mmHg 92%
    17:00 +23°C° 0.7 mm 1 mps 670 mmHg 95%
    18:00 +22°C° 0.7 mm 1 mps 670 mmHg 98%
    19:00 +21°C° 0.4 mm 1 mps 671 mmHg 97%
    20:00 +21°C° 0.4 mm 1 mps 671 mmHg 97%
    21:00 +19°C° 0.4 mm 0 mps 672 mmHg 97%
    22:00 +19°C° 0.1 mm 0 mps 672 mmHg 96%
    23:00 +19°C° 0.1 mm 0 mps 671 mmHg 96%
    Show more